Regional Weather Roundup
Issued by NWS

Home | Current Version | Previous Version | Text Only | Print | Product List | Glossary On
Versions: 1 2 3 4 5 6 7 8 9 10 11 12 13 14 15 16 17 18 19 20 21 22 23 24 25 26 27 28 29 30 31 32 33 34 35 36 37 38 39 40 41 42 43 44 45 46 47 48 49 50
000
ASUS43 KBIS 122102
RWRND

NORTH DAKOTA REGIONAL WEATHER ROUNDUP
NATIONAL WEATHER SERVICE BISMARCK ND
300 PM CST TUE DEC 12 2017

NOTE: "FAIR" INDICATES FEW OR NO CLOUDS BELOW 12,000 FEET WITH NO
SIGNIFICANT WEATHER AND/OR OBSTRUCTIONS TO VISIBILITY.


NDZ001>003-009>011-017-122200-
NORTHWEST NORTH DAKOTA

CITY           SKY/WX    TMP DP  RH WIND       PRES   REMARKS
WILLISTON      CLOUDY    47  27  45 S7        29.78F
MINOT          SUNNY     50  23  34 SW12      29.71F
MINOT AFB      SUNNY     49  25  38 W10       29.70F
$$

NDZ018>021-031>035-040>046-122200-
SOUTHWEST NORTH DAKOTA

CITY           SKY/WX    TMP DP  RH WIND       PRES   REMARKS
BISMARCK       SUNNY     53  28  38 W12       29.81F
DICKINSON      SUNNY     55  24  30 W21G29    29.81F
GARRISON         N/A     50  25  37 W13       29.77F
HETTINGER ARPT SUNNY     58  20  22 W15       29.89F
$$

NDZ004>008-012>016-024-026-027-054-122200-
NORTHEAST NORTH DAKOTA

CITY           SKY/WX    TMP DP  RH WIND       PRES   REMARKS
GRAND FORKS    PTSUNNY   35  31  85 S12       29.73F
GRND FRKS AFB  MOSUNNY   39  29  68 SW8       29.72F
DEVILS LAKE    SUNNY     40  29  64 SW10      29.71F
$$

NDZ022-023-025-028>030-036>039-047>053-122200-
SOUTHEAST NORTH DAKOTA

CITY           SKY/WX    TMP DP  RH WIND       PRES   REMARKS
FARGO          CLOUDY    37  30  75 S9        29.79F
JAMESTOWN      SUNNY     42  29  59 W12       29.75F
$$





USA.gov is the U.S. government's official web portal to all federal, state and local government web resources and services.